BAW733 LSZH-EGLL

Flight info

Callsign BAW733
Flight time N/A
Altitude 38000
Route DCT VEBIT T10 TORPA DCT REKLA DCT RLP DCT ROTSI DCT KOTUN DCT NINAL DCT ABNUR DCT DIMAL DCT ALESO DCT
Aircraft A319/M-SDE3FGIJ1KRWXY/LB1

Departure

Time N/A
Airport Zürich Airport (LSZH)

Arrival

Time 2026-05-07 11:27
Airport London Heathrow Airport (EGLL)
Time Latitude Longitude Altitude Speed Heading
2026-05-07 10:59 50.27969 1.69382 37276 ft 438 kts 315°
2026-05-07 10:59 50.30154 1.66039 36844 ft 438 kts 315°
2026-05-07 11:00 50.32333 1.62699 36091 ft 442 kts 315°
2026-05-07 11:00 50.34540 1.59319 35307 ft 447 kts 315°
2026-05-07 11:00 50.36730 1.55965 34513 ft 450 kts 315°
2026-05-07 11:00 50.38981 1.52508 33646 ft 454 kts 315°
2026-05-07 11:01 50.41253 1.49006 32656 ft 460 kts 315°
2026-05-07 11:01 50.43543 1.45475 31709 ft 463 kts 315°
2026-05-07 11:01 50.45824 1.41956 31261 ft 455 kts 315°
2026-05-07 11:01 50.47320 1.39641 30876 ft 452 kts 315°
2026-05-07 11:02 50.49577 1.36140 30287 ft 447 kts 314°
2026-05-07 11:02 50.51734 1.32668 29717 ft 442 kts 313°
2026-05-07 11:02 50.53796 1.29198 29156 ft 438 kts 312°
2026-05-07 11:02 50.55829 1.25680 28587 ft 433 kts 311°
2026-05-07 11:03 50.57841 1.22164 28027 ft 428 kts 312°
2026-05-07 11:03 50.59864 1.18758 27459 ft 424 kts 313°
2026-05-07 11:03 50.61923 1.15450 26921 ft 419 kts 314°
2026-05-07 11:03 50.63986 1.12239 26385 ft 415 kts 315°
2026-05-07 11:04 50.66038 1.09073 25864 ft 410 kts 315°
2026-05-07 11:04 50.68061 1.05941 25364 ft 405 kts 315°
2026-05-07 11:04 50.70055 1.02824 24865 ft 401 kts 315°
2026-05-07 11:04 50.72017 0.99731 24392 ft 396 kts 314°
2026-05-07 11:05 50.73924 0.96699 23933 ft 392 kts 314°
2026-05-07 11:05 50.75832 0.93649 23496 ft 389 kts 314°
2026-05-07 11:05 50.77723 0.90623 23066 ft 384 kts 314°
2026-05-07 11:05 50.79593 0.87632 22618 ft 381 kts 314°
2026-05-07 11:06 50.81448 0.84669 22178 ft 377 kts 314°
2026-05-07 11:06 50.83279 0.81739 21726 ft 374 kts 314°
2026-05-07 11:06 50.85099 0.78823 21275 ft 370 kts 314°
2026-05-07 11:06 50.86895 0.75942 20815 ft 367 kts 314°
2026-05-07 11:07 50.88679 0.73080 20346 ft 363 kts 314°
2026-05-07 11:07 50.90449 0.70240 19883 ft 360 kts 314°
2026-05-07 11:07 50.92198 0.67428 19393 ft 357 kts 314°
2026-05-07 11:07 50.93938 0.64624 18923 ft 354 kts 314°
2026-05-07 11:08 50.95658 0.61852 18436 ft 352 kts 314°
2026-05-07 11:08 50.97376 0.59082 18142 ft 355 kts 314°
2026-05-07 11:08 50.99116 0.56272 18100 ft 358 kts 314°
2026-05-07 11:08 51.00865 0.53438 18101 ft 359 kts 314°
2026-05-07 11:09 51.02587 0.50645 18102 ft 359 kts 314°
2026-05-07 11:09 51.04332 0.47816 18101 ft 359 kts 314°
2026-05-07 11:09 51.06081 0.44976 18100 ft 359 kts 314°
2026-05-07 11:09 51.07838 0.42158 18100 ft 359 kts 315°
2026-05-07 11:10 51.09631 0.39390 18100 ft 359 kts 316°
2026-05-07 11:10 51.11443 0.36652 18101 ft 359 kts 316°
2026-05-07 11:10 51.13256 0.33925 18089 ft 359 kts 316°
2026-05-07 11:10 51.15041 0.31226 17950 ft 345 kts 316°
2026-05-07 11:11 51.16741 0.28647 17748 ft 331 kts 316°
2026-05-07 11:11 51.18364 0.26172 17324 ft 325 kts 315°
2026-05-07 11:11 51.20009 0.23654 16813 ft 321 kts 315°
2026-05-07 11:11 51.21591 0.21227 16307 ft 319 kts 315°
2026-05-07 11:12 51.23185 0.18782 15803 ft 317 kts 316°
2026-05-07 11:12 51.24770 0.16348 15310 ft 315 kts 315°
2026-05-07 11:12 51.26339 0.13931 14823 ft 312 kts 315°
2026-05-07 11:12 51.27897 0.11523 14333 ft 310 kts 315°
2026-05-07 11:13 51.29441 0.09135 13903 ft 307 kts 315°
2026-05-07 11:13 51.30934 0.06826 13773 ft 292 kts 315°
2026-05-07 11:13 51.32296 0.04521 13646 ft 279 kts 304°
2026-05-07 11:13 51.33124 0.01790 13394 ft 271 kts 284°
2026-05-07 11:14 51.33386 -0.01167 13023 ft 269 kts 275°
2026-05-07 11:14 51.33562 -0.04132 12653 ft 267 kts 275°
2026-05-07 11:14 51.33740 -0.07089 12274 ft 266 kts 275°
2026-05-07 11:14 51.33916 -0.10033 11896 ft 265 kts 275°
2026-05-07 11:15 51.34093 -0.12966 11517 ft 264 kts 275°
2026-05-07 11:15 51.34268 -0.15883 11138 ft 263 kts 275°
2026-05-07 11:15 51.34438 -0.18777 10761 ft 261 kts 275°
2026-05-07 11:15 51.34607 -0.21653 10396 ft 259 kts 275°
2026-05-07 11:16 51.34774 -0.24516 10008 ft 258 kts 275°
2026-05-07 11:16 51.34940 -0.27359 9619 ft 257 kts 275°
2026-05-07 11:16 51.35108 -0.30192 9342 ft 255 kts 275°
2026-05-07 11:16 51.35274 -0.33010 9057 ft 254 kts 275°
2026-05-07 11:17 51.35440 -0.35818 8776 ft 253 kts 275°
2026-05-07 11:17 51.35601 -0.38610 8502 ft 252 kts 275°
2026-05-07 11:17 51.35763 -0.41399 8235 ft 251 kts 275°
2026-05-07 11:17 51.35921 -0.44138 7979 ft 250 kts 275°
2026-05-07 11:18 51.36078 -0.46898 7722 ft 249 kts 275°
2026-05-07 11:18 51.36234 -0.49646 7464 ft 248 kts 275°
2026-05-07 11:18 51.36389 -0.52368 7199 ft 247 kts 275°
2026-05-07 11:18 51.36541 -0.55078 7075 ft 242 kts 275°
2026-05-07 11:19 51.36689 -0.57752 7080 ft 242 kts 275°
2026-05-07 11:19 51.36837 -0.60429 7082 ft 242 kts 275°
2026-05-07 11:19 51.36985 -0.63084 7078 ft 233 kts 275°
2026-05-07 11:19 51.37122 -0.65613 7068 ft 225 kts 274°
2026-05-07 11:20 51.37161 -0.67983 6749 ft 228 kts 270°
2026-05-07 11:20 51.37138 -0.70550 6370 ft 232 kts 269°
2026-05-07 11:20 51.37098 -0.73148 6033 ft 235 kts 269°
2026-05-07 11:20 51.37387 -0.75697 5679 ft 235 kts 296°
2026-05-07 11:21 51.38392 -0.77695 5315 ft 236 kts 324°
2026-05-07 11:21 51.39884 -0.78677 4966 ft 226 kts 353°
2026-05-07 11:21 51.41405 -0.78793 4631 ft 217 kts 359°
2026-05-07 11:21 51.42877 -0.78870 4315 ft 207 kts 358°
2026-05-07 11:22 51.44273 -0.78945 4066 ft 195 kts 359°
2026-05-07 11:22 51.45604 -0.79011 3761 ft 188 kts
2026-05-07 11:22 51.46827 -0.78444 3482 ft 186 kts 36°
2026-05-07 11:22 51.47551 -0.76775 3221 ft 185 kts 76°
2026-05-07 11:23 51.47595 -0.74730 3049 ft 184 kts 92°
2026-05-07 11:23 51.47594 -0.72669 3002 ft 185 kts 90°
2026-05-07 11:23 51.47611 -0.70606 3008 ft 185 kts 90°
2026-05-07 11:23 51.47635 -0.68532 2885 ft 187 kts 90°
2026-05-07 11:24 51.47656 -0.66442 2411 ft 187 kts 90°
2026-05-07 11:24 51.47670 -0.64396 2072 ft 180 kts 89°
2026-05-07 11:24 51.47682 -0.62442 1805 ft 170 kts 89°
2026-05-07 11:24 51.47692 -0.60616 1591 ft 155 kts 89°
2026-05-07 11:25 51.47700 -0.58992 1384 ft 139 kts 90°
2026-05-07 11:25 51.47708 -0.57485 1206 ft 133 kts 89°
2026-05-07 11:25 51.47715 -0.56027 1034 ft 129 kts 90°
2026-05-07 11:25 51.47722 -0.54586 858 ft 130 kts 89°
2026-05-07 11:26 51.47729 -0.53139 691 ft 130 kts 89°
2026-05-07 11:26 51.47735 -0.51697 522 ft 129 kts 89°
2026-05-07 11:26 51.47741 -0.50266 355 ft 128 kts 89°
2026-05-07 11:26 51.47743 -0.48852 185 ft 128 kts 90°
2026-05-07 11:27 51.47749 -0.47457 88 ft 117 kts 89°
2026-05-07 11:27 51.47761 -0.46563 90 ft 37 kts 90°
2026-05-07 11:27 51.47736 -0.46217 87 ft 27 kts 117°
2026-05-07 11:27 51.47651 -0.46088 89 ft 4 kts 147°
2026-05-07 11:28 51.47648 -0.46085 86 ft 2 kts 147°
2026-05-07 11:28 51.47620 -0.46078 89 ft 7 kts 190°
2026-05-07 11:28 51.47594 -0.46172 88 ft 13 kts 271°
2026-05-07 11:28 51.47597 -0.46352 89 ft 18 kts 271°
2026-05-07 11:29 51.47597 -0.46571 86 ft 21 kts 269°
2026-05-07 11:29 51.47588 -0.46825 88 ft 24 kts 262°
2026-05-07 11:29 51.47582 -0.47104 86 ft 22 kts 269°
2026-05-07 11:29 51.47580 -0.47274 89 ft 15 kts 270°
2026-05-07 11:30 51.47582 -0.47461 89 ft 18 kts 271°
2026-05-07 11:30 51.47582 -0.47680 90 ft 21 kts 269°
2026-05-07 11:30 51.47580 -0.47938 86 ft 24 kts 269°
2026-05-07 11:30 51.47578 -0.48176 86 ft 21 kts 269°
2026-05-07 11:31 51.47575 -0.48409 86 ft 21 kts 257°
2026-05-07 11:31 51.47468 -0.48474 87 ft 14 kts 182°
2026-05-07 11:31 51.47378 -0.48474 86 ft 10 kts 180°
2026-05-07 11:31 51.47318 -0.48474 86 ft 8 kts 179°
2026-05-07 11:32 51.47272 -0.48590 86 ft 0 kts 270°